GW4379 Weather Reports


time (UTC)temp
C
wind
direction
speed
KPH
gust
KPH
rain 1hr
cm
rain 24hr
cm
rain mn
cm
humidity
%
barometer
mb
20260506091549 16 178 1.6 6.4 0.00 0.76 0.76 83 1013.1
20260506090048 16 161 1.6 3.2 0.03 0.76 0.76 86 1013.0
20260506084616 15 172 1.6 3.2 0.61 0.76 0.76 87 1012.9
20260506083052 15 0 0.0 3.2 0.76 0.76 0.76 88 1013.3
20260506081556 16 0 0.0 3.2 0.76 0.76 0.76 87 1013.3
20260506073047 18 179 3.2 6.4 0.00 0.00 0.00 72 1013.6
20260506071548 18 183 3.2 9.7 0.00 0.00 0.00 71 1013.3
20260506061554 18 144 1.6 11.3 0.00 0.00 0.00 67 1013.5
20260506044552 16 126 0.0 3.2 0.00 0.00 0.00 71 1013.4
20260506043049 17 126 0.0 3.2 0.00 0.00 0.00 70 1013.4
20260506041604 17 126 0.0 3.2 0.00 0.00 0.00 70 1013.5
20260506040054 17 0 0.0 3.2 0.00 0.00 0.00 69 1013.3
20260506034556 17 0 0.0 3.2 0.00 0.00 0.00 66 1013.2
20260506033054 18 0 0.0 0.0 0.00 0.00 0.00 64 1013.3
20260506031553 18 0 0.0 0.0 0.00 0.00 0.00 64 1013.4
20260506030052 18 0 0.0 3.2 0.00 0.00 0.00 62 1013.6
20260506024552 18 126 0.0 3.2 0.00 0.00 0.00 62 1013.6
20260506023104 19 0 0.0 1.6 0.00 0.00 0.00 59 1013.5
20260506021612 20 0 0.0 3.2 0.00 0.00 0.00 55 1013.1
20260506020053 21 126 0.0 3.2 0.00 0.00 0.00 53 1013.3
20260506014553 21 126 0.0 3.2 0.00 0.00 0.00 52 1013.1
20260506013101 22 163 0.0 4.8 0.00 0.00 0.00 49 1013.2
20260506011614 22 196 3.2 9.7 0.00 0.00 0.00 48 1013.3
20260506010057 22 207 3.2 6.4 0.00 0.00 0.00 47 1013.2
20260506004556 22 210 3.2 11.3 0.00 0.00 0.00 46 1013.0
20260506003055 22 175 3.2 8.0 0.00 0.00 0.00 46 1013.0
20260506001557 23 189 1.6 6.4 0.00 0.00 0.00 45 1013.0
20260506000057 23 202 3.2 9.7 0.00 0.00 0.00 44 1013.1
20260505234555 23 187 4.8 11.3 0.00 0.00 0.00 43 1013.3
20260505233106 23 180 6.4 17.7 0.00 0.00 0.00 42 1013.0
20260505231612 24 201 4.8 19.3 0.00 0.00 0.00 40 1013.0
20260505230053 24 156 6.4 19.3 0.00 0.00 0.00 41 1013.1
20260505224555 25 156 8.0 20.9 0.00 0.00 0.00 40 1013.1
20260505223053 25 186 8.0 16.1 0.00 0.00 0.00 40 1013.1
20260505221552 25 160 6.4 19.3 0.00 0.00 0.00 39 1013.2
20260505220059 25 209 9.7 17.7 0.00 0.00 0.00 38 1013.3
20260505214556 25 175 4.8 17.7 0.00 0.00 0.00 39 1013.3
20260505213052 25 238 6.4 22.5 0.00 0.00 0.00 37 1013.2
20260505211549 26 205 6.4 14.5 0.00 0.00 0.00 38 1013.3
20260505210051 25 213 11.3 19.3 0.00 0.00 0.00 39 1013.3
20260505204553 24 232 8.0 20.9 0.00 0.00 0.00 39 1013.6
20260505203110 25 134 8.0 20.9 0.00 0.00 0.00 38 1013.5
20260505201600 25 188 6.4 19.3 0.00 0.00 0.00 38 1013.6
20260505200053 25 164 8.0 19.3 0.00 0.00 0.00 39 1013.9
20260505194613 25 192 6.4 20.9 0.00 0.00 0.00 39 1014.3
20260505193052 24 322 9.7 22.5 0.00 0.00 0.00 39 1014.8
20260505191600 24 185 9.7 22.5 0.00 0.00 0.00 41 1014.9
20260505190048 24 295 3.2 17.7 0.00 0.00 0.00 42 1015.1
20260505184548 23 159 11.3 22.5 0.00 0.00 0.00 40 1015.2
20260505183053 24 274 9.7 27.4 0.00 0.00 0.00 39 1015.3
20260505181554 23 223 9.7 30.6 0.00 0.00 0.00 35 1015.4
20260505180100 23 153 11.3 25.7 0.00 0.00 0.00 38 1015.7
20260505174552 23 288 9.7 19.3 0.00 0.00 0.00 40 1016.2
20260505173056 23 145 11.3 27.4 0.00 0.00 0.00 41 1016.2
20260505171554 23 263 8.0 20.9 0.00 0.00 0.00 40 1016.1
20260505170109 23 279 8.0 14.5 0.00 0.00 0.00 47 1015.9
20260505164553 22 189 8.0 19.3 0.00 0.00 0.00 46 1016.1
20260505163049 22 295 4.8 19.3 0.00 0.00 0.00 46 1016.3
20260505161613 22 162 8.0 19.3 0.00 0.00 0.00 50 1016.4
20260505153103 21 164 6.4 16.1 0.00 0.00 0.00 53 1016.6
20260505151605 21 238 4.8 16.1 0.00 0.00 0.00 51 1017.1
20260505124557 15 0 0.0 3.2 0.00 0.00 0.00 72 1016.3
20260505123057 14 169 1.6 3.2 0.00 0.00 0.00 72 1016.2
20260505121612 13 0 0.0 3.2 0.00 0.00 0.00 75 1016.2
20260505120056 12 229 0.0 1.6 0.00 0.00 0.00 83 1016.1
20260505114552 10 0 0.0 3.2 0.00 0.00 0.00 87 1015.8
20260505113049 10 0 0.0 3.2 0.00 0.00 0.00 87 1015.9
20260505111547 10 0 0.0 3.2 0.00 0.00 0.00 85 1015.9
20260505101555 10 95 0.0 3.2 0.00 0.00 0.00 82 1015.5
20260505100050 10 0 0.0 3.2 0.00 0.00 0.00 81 1015.4
20260505094549 10 0 0.0 3.2 0.00 0.00 0.00 81 1015.5
20260505093048 10 0 0.0 3.2 0.00 0.00 0.00 81 1015.5